DECAYED

STARLINK-1936, 46772 (Decayed)

Orbit data source: Space-Track

STARLINK-1936, 46772 was a payload satellite owned by SpaceX/Seattle (US) in LEO that was launched on Sat, 24 Oct 2020 UTC via an FALCON 9 launch vehicle from the Air Force Eastern Test Range (AFETR). Payload-class satellites include a variety of spacecraft equipped with specific instruments for various scientific and technological missions. These include communications satellites like Starlink; space stations such as the ISS; scientific satellites like the Hubble; Earth observation satellites from companies like Planet Labs, Umbra, and HawkEye 360; GPS; miniature CubeSats for education and research; and military/defense satellites.

Not visible in the next 10 days
Identifier
46772, 2020-074AK
Orbit
Decayed
Last TLE update
3 months ago
Origin
Manufacturer
SpaceX/Seattle
Mission
Decayed Commercial Communications
Bus & Motor
STARLINK, Unknown motor
Mass
260 kg wet, ~248 kg dry
Launch date (UTC)
2020-10-24 (5 years ago)
Launch vehicle
FALCON 9
Launch site
Air Force Eastern Test Range (AFETR)
Object type
Payload
Rocket body
Debris
Shape & HBR
Box + 1 Pan, 8.86 m
Radar Cross Section
13.562 m², Large (>1 m²)

Expand to show TLE details & history

TLE from 3 months ago
0 STARLINK-1936
1 46772U 20074AK  25029.85230235  .16239081  12380-4  57500-3 0  9993
2 46772  53.0330 317.3162 0007145 221.7983 252.0232 16.43931260236062
Epoch: 2025-01-29T20:27Z
Definitive object data (Epoch: 2025-01-29T20:27:18.923Z)
Latitude
47.15165°
Longitude
7.37083°
Altitude
161.925 km
Speed
7.814 km/s
True Right ascension
05h 34m 08s
True Declination
46° 57' 52"
Sunlit
Object was in full shadow at TLE epoch
Visualization observer readout
Visualization observer readout
Orbital elements
Apogee altitude
160.324 km
Perigee altitude
150.987 km
Semi-major axis
6,533.793 km
Eccentricity
0.0007145
Inclination
53.033°
RAAN
317.3162°
Arg. of periapsis
221.7983°
True anomaly
251.94534°
Mean anomaly
252.0232°
Eccentric anomaly
251.98427°
Mean motion
4.10956 °/min
BSTAR
0.000575
Orbital period
87.6 mins
Loading maneuver chart data...
Loading SW <> Apogee altitude chart data...

STARLINK-1936 Visibility forecast

Observer location: undefined°, undefined°

This satellite is decayed
Span
Click to sort rows by Start time (UTC) header in descending order
Start Az.
Max El. time (UTC)
Max El. Az.
Max El.
End time (UTC)
End Az.
|